Flag for Norway Weather past 2 weeks in Sandnes, Norway

Now
46 °F

Passing clouds.


Feels Like: 41 °F
Forecast: 43 / 51 °F
Wind: 10 mph from Southwest

Location: Stavanger / Sola

Current Time: May 29, 2015 at 12:50:53 AM

Latest Report: May 28, 2015 at 11:50 PM


Visibility: N/A

Pressure: 29.59 "Hg

Humidity: 82%

Dew point: 41 °F

Location of SandnesLocation

Historic Weather in Sandnes — Graph

°F

Sandnes temperature yesterday

Maximum temperature yesterday: 50 °F (at 5:20 PM)
Minimum temperature yesterday: 45 °F (at 6:20 AM)
Average temperature yesterday: 48 °F

Past Weeks' High & Low Weather Summary

 TemperatureHumidityPressure
High54 °F (May 14, 1:50 PM)100% (May 18, 1:50 AM)30.18 "Hg (May 18, 1:50 AM)
Low37 °F (May 15, 6:50 AM)47% (May 18, 5:20 PM)29.24 "Hg (May 19, 5:50 AM)
Average48 °F80%29.85 "Hg
* Reported May 13 11:20 PM — May 28 11:20 PM, Sandnes, Weather by CustomWeather, © 2015

Note: Actual official high and low records may vary slightly from our data, if they occured in-between our weather recording intervals... More about our weather records

Advertising

Sandnes weather history for previous 24 hours

 ConditionsComfort  
Time TempWeatherWind HumidityBarometerVisibility
11:20 PM
Thu, May 28
48 °FScattered clouds.10 mph76%29.59 "HgN/A
10:50 PM48 °FScattered clouds.10 mph76%29.59 "HgN/A
10:20 PM48 °FBroken clouds.12 mph76%29.59 "HgN/A
9:50 PM48 °FPartly sunny.13 mph76%29.59 "HgN/A
9:20 PM48 °FScattered clouds.13 mph76%29.56 "HgN/A
8:50 PM48 °FScattered clouds.17 mph76%29.56 "HgN/A
8:20 PM48 °FBroken clouds.12 mph82%29.56 "HgN/A
7:50 PM50 °FBroken clouds.15 mph76%29.56 "HgN/A
7:20 PM50 °FPartly sunny.16 mph76%29.56 "HgN/A
6:50 PM50 °FBroken clouds.16 mph76%29.56 "HgN/A
6:20 PM50 °FDrizzle. Broken clouds.15 mph76%29.56 "HgN/A
5:50 PM50 °FBroken clouds.15 mph82%29.53 "HgN/A
5:20 PM50 °FPartly sunny.14 mph82%29.53 "HgN/A
4:50 PM48 °FBroken clouds.13 mph87%29.53 "HgN/A
4:20 PM48 °FPartly sunny.12 mph87%29.53 "HgN/A
3:50 PM48 °FDrizzle. Broken clouds.14 mph87%29.50 "HgN/A
3:20 PM48 °FBroken clouds.12 mph87%29.50 "HgN/A
2:50 PM48 °FDrizzle. Broken clouds.6 mph87%29.50 "HgN/A
2:20 PM48 °FDrizzle. Broken clouds.7 mph87%29.50 "HgN/A
1:50 PM48 °FDrizzle. Broken clouds.5 mph82%29.47 "HgN/A
1:20 PM48 °FDrizzle. Broken clouds.2 mph82%29.47 "HgN/A
12:50 PM48 °FLight rain. Partly sunny.3 mph82%29.47 "HgN/A
11:50 AM48 °FDrizzle. Partly sunny.2 mph82%29.47 "HgN/A
11:20 AM48 °FDrizzle. Partly sunny.8 mph82%29.47 "HgN/A
10:50 AM48 °FDrizzle. Partly sunny.8 mph82%29.47 "HgN/A
10:20 AM48 °FPartly sunny.13 mph82%29.50 "HgN/A
9:50 AM48 °FPartly sunny.12 mph82%29.50 "HgN/A
9:20 AM48 °FPartly sunny.9 mph87%29.50 "HgN/A
8:50 AM46 °FLight rain. Partly sunny.9 mph87%29.53 "HgN/A
8:20 AM46 °FLight rain. Broken clouds.8 mph87%29.53 "HgN/A
7:50 AM46 °FLight rain. Partly sunny.7 mph87%29.56 "HgN/A
7:20 AM45 °FLight rain. Partly sunny.7 mph93%29.56 "HgN/A
6:50 AM45 °FDrizzle. Partly sunny.8 mph93%29.56 "HgN/A
6:20 AM45 °FDrizzle. Broken clouds.9 mph93%29.59 "HgN/A
5:50 AM46 °FDrizzle. Partly sunny.9 mph87%29.59 "HgN/A
4:50 AM46 °FPassing clouds.12 mph87%29.62 "Hg6 mi
3:50 AM46 °FPassing clouds.13 mph82%29.68 "HgN/A
2:50 AM46 °FPassing clouds.9 mph82%29.71 "HgN/A
1:50 AM46 °FPassing clouds.8 mph87%29.77 "HgN/A
1:20 AM46 °FPassing clouds.7 mph87%29.80 "HgN/A
12:50 AM46 °FPartly cloudy.7 mph87%29.80 "HgN/A
12:20 AM46 °FPassing clouds.8 mph87%29.83 "HgN/A
Weather by CustomWeather, © 2015

See weather overviewHow to use our weather pages